[[{"header":{"parameterUnit":"m.s-1","parameterCategory":1,"la1":30.2991,"la2":30.254,"lo1":-89.0895,"lo2":-89.0444,"dy":0.0017,"dx":0.0017,"nx":28,"ny":28,"refTime":"2026-01-29T03:00:00:Z","depth":0,"parameterNumber":2,"parameterNumberName":"U-component_of_WINDS"},"data":[0,0,0,0,0,0,0,0,0,0,0,0,0,0,0,0,0,0,0,0,0,0,0,0,0,0,0,0,0,0,0,0,0,0,0,0,0,0,0,0,0,0,0,0,0,0,0,0,0,0,0,0,0,0,0,0,0,0,3.2126,3.2126,0,3.2143,3.2144,3.2144,3.2109,3.2108,3.2107,3.2106,3.2122,3.2124,3.2125,0,0,0,0,0,0,0,0,0,0,0,0,0,3.2064,3.2065,3.2126,3.2126,3.2126,3.2143,3.2144,3.2144,3.211,3.2108,3.2107,3.2106,3.2122,3.2124,3.2126,0,0,0,0,0,0,0,0,0,0,0,0,0,3.2087,3.2065,3.2126,3.2111,3.211,3.2143,3.2144,3.2144,3.211,3.2108,3.2107,3.2105,3.2121,3.2124,3.2126,3.2173,0,0,3.2133,3.2134,0,0,0,0,0,0,0,0,3.2086,3.2089,3.2113,3.2112,3.2111,3.2123,3.2128,3.2154,3.211,3.211,3.2106,3.2104,3.2124,3.2126,3.2133,3.2174,3.2175,3.2133,3.2134,3.2135,3.2136,0,0,0,0,0,0,0,3.2084,3.2088,3.2133,3.2114,3.2113,3.2104,3.2106,3.2132,3.2126,3.211,3.2107,3.211,3.2123,3.2131,3.2133,3.2175,3.2133,3.2135,3.2136,3.2137,3.2258,3.226,0,0,0,0,0,0,3.2084,3.2087,3.2132,3.2133,3.2094,3.2107,3.2108,3.2121,3.2126,3.2125,3.2111,3.2108,3.2128,3.213,3.2133,3.219,3.2135,3.2137,3.2138,3.2256,3.2259,3.2261,0,0,0,0,0,0,3.2083,3.2089,3.2132,3.211,3.2114,3.211,3.2124,3.2122,3.2129,3.2127,3.2126,3.212,3.2126,3.213,3.2164,3.219,3.2138,3.214,3.2254,3.2257,3.226,3.2304,0,0,0,0,0,0,3.2081,3.2088,3.2106,3.211,3.2116,3.2162,3.2125,3.2123,3.2134,3.213,3.2135,3.2134,3.2125,3.2161,3.2166,3.2192,3.2142,3.2252,3.2255,3.2259,3.23,3.2308,3.2314,0,0,0,0,0,3.2079,3.2117,3.2107,3.2113,3.2138,3.2164,3.2167,3.2156,3.2136,3.2154,3.2153,3.2134,3.2187,3.2165,3.217,3.2197,3.225,3.2254,3.2258,3.2297,3.2306,3.2314,0,0,0,0,0,0,3.2114,3.2117,3.2106,3.2146,3.2155,3.2158,3.218,3.2166,3.218,3.2176,3.2162,3.2164,3.2201,3.2203,3.2178,3.2245,3.2215,3.2221,3.2242,3.2251,3.2258,3.2256,3.2144,0,0,0,0,0,3.2127,3.2148,3.2149,3.2185,3.219,3.2184,3.2195,3.2187,3.2195,3.2198,3.2199,3.2208,3.2227,3.2239,3.2256,3.23,3.2302,3.2322,3.2329,3.2335,3.234,3.2365,3.2374,3.2275,3.2275,3.2275,0,0,3.2153,3.2157,3.2171,3.2192,3.2198,3.222,3.2187,3.2212,3.2228,3.2202,3.2234,3.2236,3.2245,3.2285,3.2302,3.2287,3.2368,3.2341,3.2345,3.2347,3.237,3.238,3.2388,3.2278,3.2277,3.2277,0,0,3.2212,3.2217,3.2247,3.2255,3.2264,3.2261,3.2269,3.2274,3.2274,3.2307,3.2288,3.2308,3.234,3.2347,3.2355,3.242,3.2404,3.2426,3.2464,3.2488,3.2496,3.2503,3.2527,3.2535,3.2431,3.2431,3.2431,0,3.2242,3.2275,3.2265,3.2291,3.2302,3.228,3.2312,3.2319,3.2334,3.2341,3.2325,3.2366,3.237,3.2412,3.2429,3.2436,3.2444,3.2425,3.2496,3.2503,3.2509,3.2531,3.254,3.2434,3.2434,3.2433,3.2433,0,3.2313,3.2336,3.236,3.2376,3.2389,3.2418,3.2412,3.2427,3.2418,3.2417,3.2452,3.2456,3.2475,3.2484,3.2475,3.2526,3.2516,3.2498,3.2468,3.2521,3.2542,3.2551,3.2438,3.2437,3.2436,3.2435,0,0,3.2391,3.2404,3.2413,3.2421,3.2431,3.2449,3.2478,3.2497,3.251,3.2522,3.2546,3.2575,3.2559,3.2568,3.256,3.2582,3.2634,3.2561,3.2561,3.2575,3.2691,3.2705,3.2715,3.2624,3.2626,3.2627,3.2691,0,3.245,3.25,3.2493,3.254,3.2563,3.2544,3.2569,3.2579,3.2579,3.2598,3.2598,3.2619,3.2596,3.2602,3.2623,3.2623,3.2657,3.2619,3.2646,3.2647,3.2644,3.2725,3.2739,3.2799,3.2699,3.27,3.2701,0,3.2524,3.254,3.2591,3.26,3.2609,3.2632,3.265,3.2668,3.2679,3.2678,3.269,3.2679,3.2708,3.2679,3.2719,3.2693,3.2704,3.2707,3.2709,3.271,3.2677,3.2729,3.2818,3.2827,3.2714,3.2713,3.2712,0,3.2577,3.2611,3.2646,3.2654,3.2665,3.2682,3.2688,3.2697,3.271,3.2726,3.2734,3.2753,3.2763,3.2778,3.2772,3.2751,3.2815,3.2784,3.2814,3.2815,3.2827,3.2827,3.2919,3.2836,3.2836,3.2835,3.2835,0,3.2642,3.2674,3.267,3.2692,3.2728,3.272,3.2755,3.2759,3.2768,3.279,3.2775,3.2796,3.2788,3.2809,3.2805,3.284,3.2844,3.2844,3.2843,3.2845,3.2845,3.2852,3.2847,3.2838,3.2837,3.2837,3.2836,0,3.2707,3.2705,3.2743,3.2752,3.2755,3.2781,3.2789,3.2809,3.281,3.2838,3.2844,3.2844,3.2868,3.2865,3.2891,3.2888,3.2932,3.2925,3.2928,3.2927,3.2957,3.2955,3.3056,3.307,3.2978,3.2979,3.298,0,3.2748,3.2773,3.2785,3.28,3.2807,3.283,3.2843,3.2837,3.2852,3.2868,3.2887,3.291,3.2928,3.2967,3.297,3.299,3.2984,3.3019,3.2987,3.2989,3.2985,3.2983,3.2986,3.3024,3.3025,3.3026,3.3027,0,3.2822,3.2821,3.2842,3.2863,3.288,3.2895,3.291,3.2922,3.2918,3.2935,3.296,3.2974,3.3003,3.3026,3.3046,3.3051,3.3039,3.3037,3.3045,3.3048,3.3049,3.3049,3.2945,3.3034,3.3034,3.3033,3.3033,3.3032,3.2877,3.2898,3.2911,3.2935,3.2945,3.296,3.298,3.2984,3.3005,3.3028,3.3023,3.3052,3.3064,3.309,3.3098,3.3121,3.3108,3.312,3.3122,3.3125,3.3129,3.3046,3.3124,3.3124,3.3124,3.3124,3.3123,0,3.295,3.2958,3.298,3.3002,3.3021,3.3009,3.3025,3.3042,3.3067,3.308,3.3099,3.3129,3.3152,3.3157,3.318,3.3197,3.3192,3.3203,3.3201,3.3203,3.3139,3.313,3.3207,3.3207,3.3207,3.3207,3.3207,3.3207,3.2991,3.3027,3.3028,3.307,3.3078,3.3106,3.3117,3.313,3.3141,3.3175,3.3195,3.3199,3.3209,3.3232,3.3253,3.3254,3.3263,3.3277,3.3275,3.3215,3.3207,3.3199,3.319,3.3279,3.3279,3.3337,3.3338,3.3338]},{"header":{"parameterUnit":"m.s-1","parameterCategory":1,"la1":30.2991,"la2":30.254,"lo1":-89.0895,"lo2":-89.0444,"dy":0.0017,"dx":0.0017,"nx":28,"ny":28,"refTime":"2026-01-29T03:00:00:Z","depth":0,"parameterNumber":3,"parameterNumberName":"V-component_of_WINDS"},"data":[0,0,0,0,0,0,0,0,0,0,0,0,0,0,0,0,0,0,0,0,0,0,0,0,0,0,0,0,0,0,0,0,0,0,0,0,0,0,0,0,0,0,0,0,0,0,0,0,0,0,0,0,0,0,0,0,0,0,-8.3656,-8.3657,0,-8.3748,-8.3749,-8.375,-8.3656,-8.3652,-8.3649,-8.3645,-8.3733,-8.3739,-8.3745,0,0,0,0,0,0,0,0,0,0,0,0,0,-8.3393,-8.3399,-8.3655,-8.3657,-8.3658,-8.3748,-8.3749,-8.375,-8.3657,-8.3652,-8.3648,-8.3644,-8.3732,-8.3738,-8.3745,0,0,0,0,0,0,0,0,0,0,0,0,0,-8.3498,-8.34,-8.3655,-8.3622,-8.362,-8.3747,-8.3749,-8.375,-8.3658,-8.3652,-8.3647,-8.3642,-8.3729,-8.3738,-8.3746,-8.3909,0,0,-8.3772,-8.3776,0,0,0,0,0,0,0,0,-8.3493,-8.3508,-8.3626,-8.3625,-8.3623,-8.3685,-8.3689,-8.3803,-8.3659,-8.3643,-8.3645,-8.3639,-8.3721,-8.373,-8.3759,-8.3913,-8.3916,-8.3773,-8.3778,-8.3782,-8.3785,0,0,0,0,0,0,0,-8.3485,-8.3504,-8.3692,-8.3628,-8.3626,-8.3601,-8.361,-8.371,-8.3711,-8.3644,-8.3638,-8.365,-8.3719,-8.3751,-8.3761,-8.3918,-8.3773,-8.3781,-8.3786,-8.3789,-8.421,-8.4216,0,0,0,0,0,0,-8.3483,-8.3498,-8.3689,-8.3694,-8.3543,-8.361,-8.362,-8.367,-8.371,-8.3711,-8.3655,-8.3645,-8.3739,-8.3751,-8.3763,-8.3957,-8.3782,-8.379,-8.3795,-8.4204,-8.4211,-8.4218,0,0,0,0,0,0,-8.3477,-8.3501,-8.3685,-8.3595,-8.3616,-8.3621,-8.3678,-8.3675,-8.3707,-8.3718,-8.3717,-8.3687,-8.3735,-8.3751,-8.3874,-8.3959,-8.3794,-8.3802,-8.4197,-8.4206,-8.4214,-8.4345,0,0,0,0,0,0,-8.347,-8.3499,-8.3562,-8.3597,-8.3622,-8.3796,-8.3683,-8.3681,-8.3723,-8.3712,-8.3749,-8.375,-8.3732,-8.3862,-8.3882,-8.3967,-8.3809,-8.4189,-8.4201,-8.4212,-8.4333,-8.4357,-8.4378,0,0,0,0,0,-8.3461,-8.3593,-8.3566,-8.3589,-8.3701,-8.3801,-8.3815,-8.3794,-8.373,-8.3793,-8.38,-8.3748,-8.3946,-8.3875,-8.3898,-8.3987,-8.4184,-8.4198,-8.4211,-8.4323,-8.4353,-8.4378,0,0,0,0,0,0,-8.3566,-8.3597,-8.3567,-8.3715,-8.3757,-8.3785,-8.3863,-8.3826,-8.3885,-8.3871,-8.3841,-8.385,-8.3981,-8.3995,-8.3916,-8.4146,-8.4054,-8.4073,-8.4132,-8.416,-8.4182,-8.4176,-8.3816,0,0,0,0,0,-8.3607,-8.3687,-8.371,-8.3838,-8.3861,-8.3859,-8.3902,-8.3883,-8.3923,-8.394,-8.3956,-8.3996,-8.4067,-8.4114,-8.418,-8.4335,-8.4342,-8.4407,-8.443,-8.4448,-8.4465,-8.4549,-8.4578,-8.4262,-8.4262,-8.4262,0,0,-8.369,-8.3718,-8.377,-8.386,-8.389,-8.3973,-8.3874,-8.3965,-8.4026,-8.3953,-8.407,-8.4084,-8.4126,-8.4267,-8.4329,-8.4283,-8.4554,-8.4466,-8.448,-8.4487,-8.4565,-8.4595,-8.4622,-8.4271,-8.427,-8.4268,0,0,-8.3886,-8.3915,-8.4026,-8.4059,-8.4106,-8.4105,-8.4131,-8.4167,-8.4174,-8.4292,-8.4239,-8.431,-8.4433,-8.4466,-8.4498,-8.4709,-8.4664,-8.4731,-8.4849,-8.4931,-8.4956,-8.4978,-8.5053,-8.5081,-8.4748,-8.4748,-8.4748,0,-8.3984,-8.4109,-8.4087,-8.4184,-8.4224,-8.4164,-8.4276,-8.4308,-8.4374,-8.4403,-8.4351,-8.4505,-8.4529,-8.4677,-8.4729,-8.4757,-8.4786,-8.4727,-8.4954,-8.4976,-8.4996,-8.5068,-8.5096,-8.4756,-8.4755,-8.4754,-8.4753,0,-8.4227,-8.4315,-8.4398,-8.4467,-8.4517,-8.462,-8.4612,-8.4666,-8.4643,-8.4646,-8.4767,-8.4795,-8.4866,-8.4899,-8.4876,-8.5044,-8.5014,-8.4959,-8.4866,-8.5035,-8.5101,-8.5129,-8.4767,-8.4764,-8.4762,-8.476,0,0,-8.4489,-8.4547,-8.4578,-8.4609,-8.4658,-8.4724,-8.4824,-8.4897,-8.4943,-8.4991,-8.5074,-8.5181,-8.5131,-8.5168,-8.5148,-8.5221,-8.5387,-8.5156,-8.5157,-8.5199,-8.5573,-8.5615,-8.5647,-8.5357,-8.5362,-8.5366,-8.557,0,-8.4687,-8.4864,-8.4848,-8.5016,-8.5096,-8.5041,-8.5129,-8.5168,-8.5174,-8.5242,-8.5247,-8.5324,-8.5252,-8.5275,-8.5344,-8.5352,-8.5461,-8.5337,-8.5433,-8.5437,-8.5425,-8.5682,-8.5725,-8.5916,-8.5596,-8.56,-8.5603,0,-8.4941,-8.5001,-8.5178,-8.5216,-8.5249,-8.5329,-8.5394,-8.546,-8.5503,-8.5502,-8.5546,-8.5514,-8.5614,-8.552,-8.5657,-8.5573,-8.5611,-8.5621,-8.5628,-8.5636,-8.553,-8.5697,-8.5976,-8.6005,-8.5644,-8.5641,-8.5638,0,-8.5116,-8.524,-8.5363,-8.5391,-8.5438,-8.5496,-8.5518,-8.5555,-8.56,-8.5657,-8.5686,-8.5752,-8.5789,-8.5841,-8.5827,-8.576,-8.5968,-8.5872,-8.5969,-8.597,-8.6015,-8.6012,-8.6305,-8.604,-8.604,-8.6039,-8.6039,0,-8.5338,-8.5448,-8.5442,-8.5517,-8.5639,-8.5619,-8.5739,-8.5754,-8.5789,-8.5864,-8.582,-8.5892,-8.587,-8.594,-8.593,-8.6046,-8.6062,-8.6064,-8.606,-8.6068,-8.6068,-8.6093,-8.6079,-8.6047,-8.6045,-8.6044,-8.6042,0,-8.5553,-8.5554,-8.5684,-8.572,-8.5731,-8.5819,-8.5849,-8.5919,-8.5922,-8.6019,-8.6041,-8.6045,-8.6126,-8.6119,-8.6208,-8.6202,-8.6345,-8.6325,-8.6332,-8.6327,-8.6425,-8.6416,-8.6744,-8.6786,-8.6494,-8.6496,-8.6499,0,-8.5695,-8.578,-8.5826,-8.5875,-8.5902,-8.5981,-8.6027,-8.6011,-8.6061,-8.6117,-8.6181,-8.6258,-8.6319,-8.6451,-8.6461,-8.653,-8.6511,-8.6621,-8.6521,-8.6527,-8.6513,-8.6508,-8.6517,-8.6641,-8.6644,-8.6647,-8.6649,0,-8.5948,-8.5944,-8.6015,-8.6086,-8.6144,-8.6198,-8.6247,-8.6289,-8.6278,-8.6336,-8.642,-8.6468,-8.6561,-8.6638,-8.6704,-8.6724,-8.6685,-8.6681,-8.6707,-8.6716,-8.6717,-8.6718,-8.6386,-8.6673,-8.6671,-8.6669,-8.6667,-8.6666,-8.6131,-8.6204,-8.6248,-8.6328,-8.6364,-8.6412,-8.6481,-8.6494,-8.6565,-8.6641,-8.6626,-8.6721,-8.6762,-8.6846,-8.6874,-8.6946,-8.6906,-8.6944,-8.6953,-8.6963,-8.6975,-8.6706,-8.6958,-8.6957,-8.6956,-8.6956,-8.6955,0,-8.6381,-8.6408,-8.6482,-8.6554,-8.6617,-8.6578,-8.6631,-8.6685,-8.677,-8.6812,-8.6875,-8.6971,-8.7046,-8.7064,-8.7135,-8.719,-8.7174,-8.7209,-8.7205,-8.7211,-8.7006,-8.6977,-8.7221,-8.7221,-8.7221,-8.7221,-8.7221,-8.7221,-8.6519,-8.6641,-8.6643,-8.6782,-8.6806,-8.6901,-8.6935,-8.6978,-8.7013,-8.7124,-8.7187,-8.7199,-8.7231,-8.7305,-8.7372,-8.7375,-8.7403,-8.7447,-8.7443,-8.7251,-8.7225,-8.7199,-8.7171,-8.7453,-8.7453,-8.7641,-8.7642,-8.7644]}]]